カタログに戻る

BLOCK DM-SL R/B

運用中GTO
NORAD 28138·ROCKET BODY· XX

打ち上げ Jan 11, 2004 から Sea Launch Platform

Loading…

TLE

経年Source: Space-Track

元期: Sep 14, 2026, 14:10 UTC

1 28138U 04001B   26257.59050980 -.00000065  00000-0  14708-2 0  9999
2 28138   0.8062 328.8618 7143209  59.5494 356.4182  2.24738268186228

AllMySatでBLOCK DM-SL R/Bをリアルタイム追跡

Download on the App Store